weather.gov     
National Weather Service

Regional Weather Roundup
NWS Homepage
This page is being discontinued on March 12, 2014.
The same data is available at this site. Please update your bookmarks.
Thank you, and we apologize for the inconvenience.
Please send an email to SR-SRH.Webmaster@noaa.gov with any concerns.


Current Version
Previous Version:    01  02  03  04  05  06  07  08  09  10  11  12  13  14  15  16  17  18  19  20  21  22  23  24  25  26  27  28  29  30  
   31  32  33  34  35  36  37  38  39  40  41  42  43  44  45  46  47  48  49  50  51  52  53  
[Printable]
436
ASCA42 TJSJ 210211
RWRPR
PUERTO RICO/U.S. VIRGIN ISLANDS HOURLY WEATHER ROUNDUP
NATIONAL WEATHER SERVICE SAN JUAN PR
1000 PM AST SUN APR 20 2014

PRZ001-004-210300-
PUERTO RICO

CITY           SKY/WX    TMP DP  RH WIND       PRES   REMARKS
SAN JUAN LMM   PTCLDY    79  70  73 E6        30.07R
PONCE          PTCLDY    75  70  83 NE6       30.00S
CEIBA          PTCLDY    79  70  73 SE10      30.09S
$$

PRZ006-007-210300-
U.S. VIRGIN ISLANDS

CITY           SKY/WX    TMP DP  RH WIND       PRES   REMARKS
CHARLOTTE AMA  CLOUDY    79  72  78 E12       30.07
CHRISTIANSTED  PTCLDY    79  70  73 E7        30.07S
$$

HOURLY WEATHER ROUNDUP FOR THE NEWS MEDIA

CITY           SKY/WX    TMP DP  RH WIND       PRES   REMARKS
MIAMI          PTCLDY    73  60  63 VRB5      30.03R
ORLANDO        CLOUDY    63  57  81 NE13      30.10R
NEW YORK       PTCLDY    44  27  51 E3        30.39F
NEWARK         PTCLDY    45  29  53 CALM      30.38F
CHICAGO        MOCLDY    64  40  41 S9        30.04S
HARTFORD       CLEAR     41  34  76 SE8       30.39F
BOSTON         PTCLDY    42  32  67 S10       30.40F
DALLAS         RAIN      64  61  90 E3        30.06R
PHILADELPHIA   CLEAR     47  20  34 E8        30.38S




U.S. Dept. of Commerce
NOAA National Weather Service
1325 East West Highway
Silver Spring, MD 20910
E-mail: w-nws.webmaster@noaa.gov
Page last modified: May 16, 2007
NATIONAL WEATHER SERVICE: for Safety, for Work, for Fun - FOR LIFE